SCP
-0 -0 -0 -0 -0 -0 -0 -0 -0 -0 0 0 -0 -0 0 0 0 0 -0 -0 -0 -0 -0 -0 -0 -0 -0 -0 0 0 0 0 0 0 0 0 0 0
0 0 0 -0 -0 -0 -0 -0 -0 -0 0 0 0 -0 0 0 0 0 0 -0 -0 -0 -0 -0 -0 -0 0 0 0 0 0 0 0 0 0 0 0 0
0 0 0 0 0 -0 -0 0 -0 -0 -0 0 0 0 0 0 0 0 0 0 0 -0 0 0 0 0 0 0 0 0 0 0 0 0 0 0 0 0
0 0 0 0 0 0 0 -0 0 0 0 0 0 0 0 0 0 0 0 0 0 0 0 0 0 0 0 0 0 0 0 0 0 0 0 0 0 0
0 0 0 0 0 0 0 0 0 0 0 0 0 0 0 0 0 0 0 0 0 0 0 0 0 0 0 0 0 0 0 0 0 0 0 0 0 0
0 0 0 0 0 0 0 0 0 0 0 0 0 0 0 0 0 0 0 0 0 0 0 0 0 0 0 0 0 0 0 0 0 0 0 0 0 0
0 0 0 0 0 0 0 0 0 0 0 0 0 0 0 0 0 0 0 0 0 0 0 0 0 0 0 0 0 0 0 0 0 0 0 0 0 0
0 0 0 0 0 0 0 0 0 0 0 0 0 0 0 0 0 0 0 0 0 0 0 0 0 0 0 0 0 0 0 0 0 0 0 0 0 0
0 0 0 0 0 0 0 0 0 0 0 0 0 0 0 0 0 0 0 0 0 0 0 0 0 0 0 0 0 0 0 0 0 0 0 0 0 0
0 0 0 0 0 0 0 0 0 0 0 0 0 0 0 0 0 0 0 0 0 0 0 0 0 0 0 0 0 0 0 0 0 0 0 0 0 0
0 0 0 0 0 0 0 0 0 0 0 0 0 0 0 0 0 0 0 0 0 0 0 0 0 0 0 0 0 0 0 0 0 0 0 0 0 0
0 0 0 0 0 0 0 0 0 0 0 0 0 0 0 0 0 0 0 0 0 0 0 0 0 0 0 0 0 0 0 0 0 0 0 0 0 0
0 0 0 0 0 0 0 0 0 0 0 0 0 0 0 0 0 0 0 0 0 0 0 0 0 0 0 0 0 0 0 0 0 0 0 0 0 0
0 0 0 0 0 0 0 0 0 0 0 0 0 0 0 0 0 0 0 0 0 0 0 0 0 0 0 0 0 0 0 0 0 0 0 0 0 0
0 0 0 0 0 0 0 0 0 0 0 0 0 0 0 0 0 0 0 0 0 0 0 0 0 0 0 0 0 0 0 0 0 0 0 0 0 0
0 0 0 0 0 0 0 0 0 0 0 0 0 0 0 0 0 0 0 0 0 0 0 0 0 0 0 0 0 0 0 0 0 0 0 0 0 0
0 0 0 0 0 0 0 0 0 0 0 0 0 0 0 0 0 0 0 0 0 0 0 0 0 0 0 0 0 0 0 0 0 0 0 0 0 0
0 0 0 0 0 0 0 0 0 0 0 0 0 0 0 0 0 0 0 0 0 0 0 0 0 0 0 0 0 0 0 0 0 0 0 0 0 -0
0 0 0 0 0 0 0 0 0 0 0 0 0 0 0 0 0 0 -0 0 0 -0 0 0 0 0 0 0 0 0 0 0 0 0 0 0 0 -0
0 0 0 0 0 0 0 0 0 0 0 0 0 0 0 0 0 0 -0 -0 -0 -0 -0 -0 0 0 0 0 0 0 0 0 0 0 -0 -0 -0 -0
0 0 0 0 0 0 0 0 0 0 0 0 0 0 0 0 0 0 0 0 0 -0 0 0 0 0 0 0 0 0 0 0 -0 -0 -0 -0 -0 -0
0 0 0 0 0 0 0 0 0 0 0 0 0 0 0 0 0 0 0 0 0 0 0 0 0 0 -0 -0 0 0 0 0 -0 -0 -0 0 0 0
0 0 0 0 0 0 0 0 0 0 0 0 0 0 0 0 0 0 0 0 0 0 0 0 0 0 0 0 0 0 0 0 0 0 -0 -0 -0 0
Wind_Speed_500mb
12 11 9 9 11 9 12 14 14 12 6 6 23 19 31 29 23 20 21 19 19 19 18 21 20 20 21 20 19 19 19 20 25 29 30 31 28 27
15 12 14 13 13 19 15 17 11 8 4 10 21 21 12 25 27 21 21 20 20 21 22 23 23 23 25 25 25 25 24 22 23 27 30 31 33 33
23 19 27 23 19 21 27 22 22 22 21 12 14 18 16 21 22 18 21 23 21 22 25 29 30 28 28 29 29 29 28 26 26 27 29 30 31 33
23 26 26 26 24 25 22 23 26 22 23 17 18 21 23 19 22 25 23 24 25 27 30 30 32 33 33 32 33 33 32 32 32 32 31 32 32 32
28 27 26 26 26 24 28 28 26 27 24 24 23 22 25 29 33 31 33 33 30 31 34 35 35 35 37 38 38 38 38 37 35 35 35 35 34 34
31 30 28 30 29 26 29 30 33 32 31 32 34 30 26 28 34 36 39 39 39 36 38 43 44 46 46 44 45 44 43 42 40 38 38 38 37 37
36 33 32 30 33 31 31 30 29 30 32 34 35 36 32 34 39 37 38 40 45 50 49 49 49 51 52 51 49 47 47 47 46 44 43 42 41 40
38 33 31 31 35 32 34 35 31 31 33 36 38 40 38 35 35 39 41 44 50 45 45 47 46 47 43 45 47 48 48 50 51 51 50 46 45 45
46 45 39 37 35 33 34 37 40 41 45 42 44 43 43 41 41 44 47 52 57 54 55 60 59 61 54 51 47 49 51 51 53 54 54 51 49 49
53 50 45 46 43 37 33 36 41 44 36 36 42 44 43 41 40 39 41 47 53 56 56 65 64 67 61 60 54 53 55 54 52 53 52 54 51 51
50 55 55 51 47 45 46 47 46 42 40 41 45 46 45 46 46 49 52 50 58 62 64 66 69 68 70 69 66 66 65 61 62 54 52 52 56 56
46 50 52 52 50 51 53 51 48 44 47 46 47 48 49 49 49 52 54 56 58 66 61 57 67 68 73 79 74 69 74 70 69 64 61 59 61 58
33 36 40 42 45 43 40 41 41 37 37 42 46 49 52 55 55 53 54 55 57 60 64 61 69 69 73 79 83 76 66 61 68 74 71 64 66 74
23 24 26 26 30 32 35 28 36 37 43 46 51 53 54 54 49 46 44 44 46 51 53 51 50 52 44 60 64 61 41 52 69 68 73 71 70 59
23 22 22 24 26 27 30 35 38 40 38 35 35 38 39 41 43 42 45 51 54 59 59 58 60 58 58 61 63 57 52 51 49 59 66 66 54 52
22 23 24 26 26 25 24 20 14 13 16 18 21 23 24 25 28 33 37 41 45 43 44 47 45 42 45 46 48 51 48 44 42 44 50 44 40 37
15 20 18 15 11 6 3 1 4 7 10 13 16 18 19 20 21 22 24 24 24 27 26 25 22 23 26 31 36 37 38 38 38 34 32 34 34 42
16 16 15 12 9 7 6 5 8 9 12 16 19 21 21 21 22 22 22 23 23 23 21 19 20 19 17 15 17 20 24 23 23 20 28 37 41 37
23 16 11 11 8 6 4 4 6 10 12 13 16 18 21 23 26 28 31 36 38 31 30 32 30 25 15 14 18 19 17 2 12 29 32 32 37 41
21 14 11 7 2 3 6 3 3 5 6 6 8 11 14 18 25 31 34 33 35 36 30 24 23 27 30 24 25 28 32 24 23 26 28 30 30 28
25 20 15 13 9 8 8 6 4 4 2 2 2 5 9 14 20 26 29 32 31 30 28 24 26 32 34 34 31 26 17 17 19 19 24 28 23 23
31 27 21 17 18 16 17 15 11 10 12 6 3 5 7 11 12 12 15 17 19 20 23 23 15 15 16 20 19 15 10 4 7 13 17 22 18 14
30 28 29 27 26 24 27 23 21 17 18 15 7 9 10 12 7 3 6 10 12 12 11 12 11 6 3 4 7 8 9 7 9 13 15 16 15 14
Wind_Direction_500mb
245 232 250 260 259 282 242 322 294 298 259 308 302 246 239 240 237 249 256 256 258 245 251 251 253 253 253 257 265 273 273 263 249 249 250 253 253 251
256 288 271 275 268 254 271 265 299 310 33 254 293 257 256 237 243 263 255 259 257 254 255 258 259 258 259 262 266 267 265 267 261 258 257 256 252 255
247 264 264 276 277 269 261 261 274 284 287 285 272 255 255 247 249 271 272 264 264 259 259 258 257 261 263 264 266 268 269 271 268 263 262 259 256 255
247 253 254 261 266 266 272 264 263 265 270 279 287 269 264 261 259 271 280 277 266 264 261 262 257 261 266 269 270 271 273 274 272 266 267 264 262 259
250 254 253 254 265 258 261 264 258 255 264 277 270 276 265 262 268 274 278 278 278 269 267 265 263 267 271 272 274 275 274 275 274 269 269 264 262 262
252 254 260 257 262 262 262 259 257 260 264 269 269 264 269 263 271 275 279 279 276 278 280 276 273 270 272 277 277 276 273 271 270 267 267 260 259 260
256 257 257 261 258 258 264 260 262 266 271 270 274 276 267 261 266 279 275 280 275 280 282 283 282 281 274 273 275 274 273 271 270 268 267 260 258 257
250 250 254 259 259 264 262 263 262 262 266 269 276 278 276 276 276 282 284 284 282 288 289 294 291 288 286 279 278 272 270 269 269 267 263 259 257 255
252 256 252 253 256 261 260 264 260 267 265 269 271 274 280 279 278 277 278 275 278 287 289 284 283 283 282 280 276 273 270 271 269 269 258 256 255 255
256 256 257 256 256 258 261 261 260 267 267 269 272 278 282 286 281 280 281 282 279 281 281 281 286 287 289 287 280 271 271 270 269 266 257 254 253 254
252 253 252 254 255 256 261 265 263 264 266 275 277 276 278 278 279 278 275 281 280 280 283 284 284 287 288 287 283 277 277 278 269 262 259 257 250 246
253 250 247 248 251 256 260 261 262 262 266 270 274 276 277 276 274 274 277 277 278 283 284 280 285 287 287 287 288 281 272 264 262 257 252 249 246 236
254 249 244 242 245 249 253 253 258 267 271 276 280 280 278 278 278 276 274 274 278 277 280 280 280 281 280 283 281 278 264 269 267 252 248 242 242 236
246 240 237 235 234 248 260 253 259 265 277 279 280 280 279 278 279 280 281 281 283 280 283 283 278 279 279 285 281 282 285 270 262 253 261 253 239 234
238 231 231 235 243 252 253 263 275 281 285 286 287 289 291 290 287 284 278 279 280 280 282 280 280 283 283 282 286 287 284 278 265 256 255 251 248 242
229 222 226 239 249 261 270 277 285 296 305 315 320 319 318 312 305 298 292 286 283 280 279 278 278 278 277 275 281 282 278 263 271 258 251 243 231 220
199 200 211 221 224 214 202 304 351 6 22 21 16 14 12 8 357 345 330 321 315 309 306 302 301 293 282 280 275 274 271 265 258 256 224 207 201 189
189 187 182 168 159 150 138 108 88 59 58 59 51 43 40 35 30 24 23 26 24 23 16 4 352 344 328 308 313 287 280 269 251 220 189 181 174 175
171 153 157 154 137 122 131 110 95 89 76 63 54 49 47 46 47 46 53 54 49 46 39 35 29 23 26 50 50 45 20 254 184 163 169 163 156 160
179 179 174 161 141 39 31 55 128 124 108 83 58 54 48 57 66 65 63 63 58 59 63 58 62 64 61 63 78 66 68 95 120 137 149 155 151 165
189 195 207 221 232 275 306 324 327 264 281 319 34 66 72 89 91 83 73 67 72 61 58 63 65 77 83 92 91 86 86 110 124 144 164 166 184 194
209 213 221 235 243 264 282 289 297 303 285 281 275 182 139 124 112 91 66 50 43 40 40 41 57 90 92 87 69 55 69 131 199 209 202 203 207 255
221 225 227 237 245 248 268 277 262 279 282 288 270 176 180 170 150 90 20 6 360 359 354 337 352 23 153 144 87 106 96 162 206 214 216 193 196 220
Wind_Speed_850mb
12 11 9 9 11 9 12 14 14 12 6 6 23 19 31 29 23 20 21 19 19 19 18 21 20 20 21 20 19 19 19 20 25 29 30 31 28 27
15 12 14 13 13 19 15 17 11 8 4 10 21 21 12 25 27 21 21 20 20 21 22 23 23 23 25 25 25 25 24 22 23 27 30 31 33 33
23 19 27 23 19 21 27 22 22 22 21 12 14 18 16 21 22 18 21 23 21 22 25 29 30 28 28 29 29 29 28 26 26 27 29 30 31 33
23 26 26 26 24 25 22 23 26 22 23 17 18 21 23 19 22 25 23 24 25 27 30 30 32 33 33 32 33 33 32 32 32 32 31 32 32 32
28 27 26 26 26 24 28 28 26 27 24 24 23 22 25 29 33 31 33 33 30 31 34 35 35 35 37 38 38 38 38 37 35 35 35 35 34 34
31 30 28 30 29 26 29 30 33 32 31 32 34 30 26 28 34 36 39 39 39 36 38 43 44 46 46 44 45 44 43 42 40 38 38 38 37 37
36 33 32 30 33 31 31 30 29 30 32 34 35 36 32 34 39 37 38 40 45 50 49 49 49 51 52 51 49 47 47 47 46 44 43 42 41 40
38 33 31 31 35 32 34 35 31 31 33 36 38 40 38 35 35 39 41 44 50 45 45 47 46 47 43 45 47 48 48 50 51 51 50 46 45 45
46 45 39 37 35 33 34 37 40 41 45 42 44 43 43 41 41 44 47 52 57 54 55 60 59 61 54 51 47 49 51 51 53 54 54 51 49 49
53 50 45 46 43 37 33 36 41 44 36 36 42 44 43 41 40 39 41 47 53 56 56 65 64 67 61 60 54 53 55 54 52 53 52 54 51 51
50 55 55 51 47 45 46 47 46 42 40 41 45 46 45 46 46 49 52 50 58 62 64 66 69 68 70 69 66 66 65 61 62 54 52 52 56 56
46 50 52 52 50 51 53 51 48 44 47 46 47 48 49 49 49 52 54 56 58 66 61 57 67 68 73 79 74 69 74 70 69 64 61 59 61 58
33 36 40 42 45 43 40 41 41 37 37 42 46 49 52 55 55 53 54 55 57 60 64 61 69 69 73 79 83 76 66 61 68 74 71 64 66 74
23 24 26 26 30 32 35 28 36 37 43 46 51 53 54 54 49 46 44 44 46 51 53 51 50 52 44 60 64 61 41 52 69 68 73 71 70 59
23 22 22 24 26 27 30 35 38 40 38 35 35 38 39 41 43 42 45 51 54 59 59 58 60 58 58 61 63 57 52 51 49 59 66 66 54 52
22 23 24 26 26 25 24 20 14 13 16 18 21 23 24 25 28 33 37 41 45 43 44 47 45 42 45 46 48 51 48 44 42 44 50 44 40 37
15 20 18 15 11 6 3 1 4 7 10 13 16 18 19 20 21 22 24 24 24 27 26 25 22 23 26 31 36 37 38 38 38 34 32 34 34 42
16 16 15 12 9 7 6 5 8 9 12 16 19 21 21 21 22 22 22 23 23 23 21 19 20 19 17 15 17 20 24 23 23 20 28 37 41 37
23 16 11 11 8 6 4 4 6 10 12 13 16 18 21 23 26 28 31 36 38 31 30 32 30 25 15 14 18 19 17 2 12 29 32 32 37 41
21 14 11 7 2 3 6 3 3 5 6 6 8 11 14 18 25 31 34 33 35 36 30 24 23 27 30 24 25 28 32 24 23 26 28 30 30 28
25 20 15 13 9 8 8 6 4 4 2 2 2 5 9 14 20 26 29 32 31 30 28 24 26 32 34 34 31 26 17 17 19 19 24 28 23 23
31 27 21 17 18 16 17 15 11 10 12 6 3 5 7 11 12 12 15 17 19 20 23 23 15 15 16 20 19 15 10 4 7 13 17 22 18 14
30 28 29 27 26 24 27 23 21 17 18 15 7 9 10 12 7 3 6 10 12 12 11 12 11 6 3 4 7 8 9 7 9 13 15 16 15 14
Wind_Direction_850mb
245 232 250 260 259 282 242 322 294 298 259 308 302 246 239 240 237 249 256 256 258 245 251 251 253 253 253 257 265 273 273 263 249 249 250 253 253 251
256 288 271 275 268 254 271 265 299 310 33 254 293 257 256 237 243 263 255 259 257 254 255 258 259 258 259 262 266 267 265 267 261 258 257 256 252 255
247 264 264 276 277 269 261 261 274 284 287 285 272 255 255 247 249 271 272 264 264 259 259 258 257 261 263 264 266 268 269 271 268 263 262 259 256 255
247 253 254 261 266 266 272 264 263 265 270 279 287 269 264 261 259 271 280 277 266 264 261 262 257 261 266 269 270 271 273 274 272 266 267 264 262 259
250 254 253 254 265 258 261 264 258 255 264 277 270 276 265 262 268 274 278 278 278 269 267 265 263 267 271 272 274 275 274 275 274 269 269 264 262 262
252 254 260 257 262 262 262 259 257 260 264 269 269 264 269 263 271 275 279 279 276 278 280 276 273 270 272 277 277 276 273 271 270 267 267 260 259 260
256 257 257 261 258 258 264 260 262 266 271 270 274 276 267 261 266 279 275 280 275 280 282 283 282 281 274 273 275 274 273 271 270 268 267 260 258 257
250 250 254 259 259 264 262 263 262 262 266 269 276 278 276 276 276 282 284 284 282 288 289 294 291 288 286 279 278 272 270 269 269 267 263 259 257 255
252 256 252 253 256 261 260 264 260 267 265 269 271 274 280 279 278 277 278 275 278 287 289 284 283 283 282 280 276 273 270 271 269 269 258 256 255 255
256 256 257 256 256 258 261 261 260 267 267 269 272 278 282 286 281 280 281 282 279 281 281 281 286 287 289 287 280 271 271 270 269 266 257 254 253 254
252 253 252 254 255 256 261 265 263 264 266 275 277 276 278 278 279 278 275 281 280 280 283 284 284 287 288 287 283 277 277 278 269 262 259 257 250 246
253 250 247 248 251 256 260 261 262 262 266 270 274 276 277 276 274 274 277 277 278 283 284 280 285 287 287 287 288 281 272 264 262 257 252 249 246 236
254 249 244 242 245 249 253 253 258 267 271 276 280 280 278 278 278 276 274 274 278 277 280 280 280 281 280 283 281 278 264 269 267 252 248 242 242 236
246 240 237 235 234 248 260 253 259 265 277 279 280 280 279 278 279 280 281 281 283 280 283 283 278 279 279 285 281 282 285 270 262 253 261 253 239 234
238 231 231 235 243 252 253 263 275 281 285 286 287 289 291 290 287 284 278 279 280 280 282 280 280 283 283 282 286 287 284 278 265 256 255 251 248 242
229 222 226 239 249 261 270 277 285 296 305 315 320 319 318 312 305 298 292 286 283 280 279 278 278 278 277 275 281 282 278 263 271 258 251 243 231 220
199 200 211 221 224 214 202 304 351 6 22 21 16 14 12 8 357 345 330 321 315 309 306 302 301 293 282 280 275 274 271 265 258 256 224 207 201 189
189 187 182 168 159 150 138 108 88 59 58 59 51 43 40 35 30 24 23 26 24 23 16 4 352 344 328 308 313 287 280 269 251 220 189 181 174 175
171 153 157 154 137 122 131 110 95 89 76 63 54 49 47 46 47 46 53 54 49 46 39 35 29 23 26 50 50 45 20 254 184 163 169 163 156 160
179 179 174 161 141 39 31 55 128 124 108 83 58 54 48 57 66 65 63 63 58 59 63 58 62 64 61 63 78 66 68 95 120 137 149 155 151 165
189 195 207 221 232 275 306 324 327 264 281 319 34 66 72 89 91 83 73 67 72 61 58 63 65 77 83 92 91 86 86 110 124 144 164 166 184 194
209 213 221 235 243 264 282 289 297 303 285 281 275 182 139 124 112 91 66 50 43 40 40 41 57 90 92 87 69 55 69 131 199 209 202 203 207 255
221 225 227 237 245 248 268 277 262 279 282 288 270 176 180 170 150 90 20 6 360 359 354 337 352 23 153 144 87 106 96 162 206 214 216 193 196 220